[[{"header":{"parameterUnit":"m.s-1","parameterCategory":1,"la1":30.2991,"la2":30.254,"lo1":-89.0895,"lo2":-89.0444,"dy":0.0017,"dx":0.0017,"nx":28,"ny":28,"refTime":"2023-08-31T03:00:00:Z","depth":0,"parameterNumber":2,"parameterNumberName":"U-component_of_WINDS"},"data":[0,0,0,0,0,0,0,0,0,0,0,0,0,0,0,0,0,0,0,0,0,0,0,0,0,0,0,0,0,0,0,0,0,0,0,0,0,0,0,0,0,0,0,0,0,0,0,0,0,0,0,0,0,0,0,0,0,0,-0.4916,-0.4915,0,-0.4837,-0.4836,-0.4835,-0.4773,-0.4772,-0.4772,-0.4771,-0.4687,-0.4686,-0.4684,0,0,0,0,0,0,0,0,0,0,0,0,0,-0.5008,-0.5007,-0.4916,-0.4915,-0.4914,-0.4837,-0.4836,-0.4835,-0.4773,-0.4772,-0.4772,-0.4771,-0.4688,-0.4686,-0.4684,0,0,0,0,0,0,0,0,0,0,0,0,0,-0.4953,-0.5007,-0.4916,-0.4874,-0.4869,-0.4837,-0.4836,-0.4835,-0.4773,-0.4772,-0.4771,-0.4771,-0.4689,-0.4686,-0.4684,-0.4687,0,0,-0.4676,-0.4675,0,0,0,0,0,0,0,0,-0.4956,-0.4949,-0.4881,-0.4877,-0.4872,-0.4814,-0.4838,-0.4785,-0.4773,-0.481,-0.4771,-0.477,-0.473,-0.4724,-0.4711,-0.4683,-0.4679,-0.4676,-0.4674,-0.4673,-0.4673,0,0,0,0,0,0,0,-0.496,-0.4952,-0.4885,-0.488,-0.4874,-0.4857,-0.4848,-0.4828,-0.4776,-0.4806,-0.4802,-0.4793,-0.4727,-0.4714,-0.4709,-0.4678,-0.4676,-0.4674,-0.4672,-0.4671,-0.4645,-0.4645,0,0,0,0,0,0,-0.4971,-0.4956,-0.4887,-0.4882,-0.4912,-0.4857,-0.4847,-0.4833,-0.4776,-0.4766,-0.4794,-0.4791,-0.4719,-0.4712,-0.4706,-0.4703,-0.4673,-0.4671,-0.467,-0.4644,-0.4645,-0.4646,0,0,0,0,0,0,-0.4973,-0.4965,-0.489,-0.4918,-0.4907,-0.4856,-0.4842,-0.4832,-0.4819,-0.4767,-0.4757,-0.479,-0.4718,-0.4709,-0.4691,-0.4699,-0.467,-0.4668,-0.4643,-0.4644,-0.4645,-0.47,0,0,0,0,0,0,-0.4976,-0.4967,-0.4968,-0.4918,-0.4906,-0.4879,-0.4842,-0.4831,-0.4815,-0.481,-0.476,-0.4751,-0.4716,-0.4695,-0.4689,-0.4695,-0.4666,-0.4642,-0.4643,-0.4645,-0.4697,-0.4703,-0.4708,0,0,0,0,0,-0.498,-0.4987,-0.4969,-0.4961,-0.4907,-0.488,-0.4872,-0.4833,-0.4816,-0.4816,-0.4782,-0.4753,-0.47,-0.4694,-0.4686,-0.4692,-0.4641,-0.4643,-0.4645,-0.4695,-0.4702,-0.4707,0,0,0,0,0,0,-0.5038,-0.498,-0.4959,-0.495,-0.4921,-0.4869,-0.4869,-0.4842,-0.4815,-0.4811,-0.4762,-0.4751,-0.4738,-0.4713,-0.4708,-0.469,-0.4666,-0.4667,-0.4707,-0.4713,-0.4718,-0.4724,-0.4664,0,0,0,0,0,-0.5051,-0.5034,-0.4983,-0.498,-0.4967,-0.492,-0.4907,-0.4879,-0.4845,-0.4832,-0.4797,-0.4765,-0.4741,-0.4726,-0.4701,-0.4693,-0.468,-0.4693,-0.4699,-0.4703,-0.4703,-0.4695,-0.4699,-0.4651,-0.4651,-0.4651,0,0,-0.5075,-0.5041,-0.5034,-0.4991,-0.4965,-0.4947,-0.491,-0.4894,-0.488,-0.4829,-0.481,-0.4783,-0.4744,-0.4731,-0.4723,-0.471,-0.4714,-0.4705,-0.4709,-0.4707,-0.4697,-0.4702,-0.4706,-0.4653,-0.4652,-0.4652,0,0,-0.5111,-0.5084,-0.5078,-0.5052,-0.5012,-0.4981,-0.498,-0.4932,-0.4913,-0.4893,-0.4854,-0.4836,-0.4796,-0.4768,-0.4749,-0.4773,-0.4744,-0.4766,-0.4793,-0.4785,-0.4789,-0.4792,-0.4798,-0.4801,-0.4767,-0.4767,-0.4767,0,-0.5146,-0.5119,-0.5078,-0.5063,-0.5045,-0.4999,-0.4991,-0.4968,-0.4922,-0.4909,-0.4895,-0.4842,-0.4813,-0.4791,-0.4797,-0.4784,-0.4779,-0.4771,-0.4792,-0.4795,-0.4797,-0.4802,-0.4805,-0.477,-0.4769,-0.4769,-0.4769,0,-0.5163,-0.5145,-0.5145,-0.5102,-0.5083,-0.5073,-0.5028,-0.5014,-0.4987,-0.4957,-0.4936,-0.4898,-0.4864,-0.4857,-0.4831,-0.4831,-0.4824,-0.4802,-0.4776,-0.4805,-0.4809,-0.4811,-0.4774,-0.4773,-0.4772,-0.4771,0,0,-0.5234,-0.5167,-0.5168,-0.5147,-0.5099,-0.5083,-0.5069,-0.5036,-0.5024,-0.4994,-0.4979,-0.4946,-0.4924,-0.4903,-0.4873,-0.4866,-0.4884,-0.4844,-0.4843,-0.4851,-0.4879,-0.4895,-0.4898,-0.4865,-0.4865,-0.4865,-0.4882,0,-0.526,-0.5233,-0.5195,-0.518,-0.5162,-0.5117,-0.5104,-0.5073,-0.5044,-0.5023,-0.499,-0.4966,-0.4941,-0.4927,-0.4919,-0.4884,-0.4889,-0.4882,-0.4849,-0.4848,-0.4859,-0.4901,-0.4918,-0.4935,-0.4883,-0.4884,-0.4884,0,-0.5288,-0.526,-0.5243,-0.5195,-0.5186,-0.5176,-0.5141,-0.5122,-0.5084,-0.5063,-0.5039,-0.5006,-0.4987,-0.4965,-0.4936,-0.4932,-0.4916,-0.4897,-0.4896,-0.489,-0.4867,-0.4894,-0.494,-0.4942,-0.4886,-0.4886,-0.4886,0,-0.5338,-0.5297,-0.5281,-0.5264,-0.5209,-0.5202,-0.5178,-0.514,-0.5121,-0.5091,-0.5078,-0.5046,-0.5027,-0.5002,-0.496,-0.4949,-0.4935,-0.491,-0.4915,-0.4916,-0.4913,-0.4914,-0.4956,-0.4906,-0.4906,-0.4906,-0.4906,0,-0.5371,-0.5362,-0.5302,-0.5293,-0.528,-0.5236,-0.5224,-0.5196,-0.5162,-0.5145,-0.5104,-0.5088,-0.5035,-0.5012,-0.498,-0.4959,-0.4952,-0.4933,-0.4924,-0.4935,-0.4938,-0.4923,-0.492,-0.4906,-0.4906,-0.4906,-0.4906,0,-0.5425,-0.5385,-0.5364,-0.5313,-0.53,-0.5293,-0.5248,-0.5236,-0.5204,-0.5182,-0.5174,-0.5124,-0.5095,-0.5052,-0.5009,-0.4987,-0.4971,-0.4958,-0.4984,-0.4979,-0.4985,-0.4985,-0.5018,-0.5019,-0.4971,-0.4971,-0.4972,0,-0.5448,-0.544,-0.5387,-0.5373,-0.5351,-0.5329,-0.531,-0.5265,-0.5246,-0.5202,-0.5194,-0.5162,-0.5134,-0.5089,-0.5048,-0.5014,-0.4999,-0.5013,-0.4993,-0.5005,-0.4996,-0.4997,-0.4995,-0.5017,-0.5018,-0.5018,-0.5019,0,-0.5492,-0.5472,-0.5447,-0.5415,-0.5394,-0.5366,-0.5336,-0.5326,-0.5274,-0.5255,-0.5225,-0.5204,-0.516,-0.5127,-0.5088,-0.5061,-0.5031,-0.5025,-0.5024,-0.5035,-0.505,-0.504,-0.4995,-0.5024,-0.5024,-0.5023,-0.5023,-0.5023,-0.5529,-0.5519,-0.548,-0.5453,-0.5426,-0.5399,-0.5384,-0.5351,-0.5325,-0.5287,-0.5262,-0.5232,-0.5192,-0.5137,-0.5111,-0.5086,-0.5074,-0.5073,-0.5072,-0.5072,-0.5075,-0.5056,-0.5079,-0.5079,-0.5079,-0.5079,-0.5079,0,-0.5569,-0.5542,-0.5518,-0.5477,-0.5455,-0.543,-0.5394,-0.5377,-0.5353,-0.5319,-0.5292,-0.5256,-0.5224,-0.518,-0.5144,-0.5132,-0.5117,-0.5124,-0.5124,-0.5118,-0.509,-0.5094,-0.5137,-0.5137,-0.5137,-0.5137,-0.5137,-0.5137,-0.5587,-0.5569,-0.5544,-0.551,-0.5483,-0.5455,-0.5437,-0.541,-0.5383,-0.5345,-0.5318,-0.529,-0.5251,-0.5212,-0.5181,-0.5168,-0.5156,-0.5167,-0.5151,-0.5125,-0.512,-0.5115,-0.5118,-0.5166,-0.5166,-0.518,-0.518,-0.518]},{"header":{"parameterUnit":"m.s-1","parameterCategory":1,"la1":30.2991,"la2":30.254,"lo1":-89.0895,"lo2":-89.0444,"dy":0.0017,"dx":0.0017,"nx":28,"ny":28,"refTime":"2023-08-31T03:00:00:Z","depth":0,"parameterNumber":3,"parameterNumberName":"V-component_of_WINDS"},"data":[0,0,0,0,0,0,0,0,0,0,0,0,0,0,0,0,0,0,0,0,0,0,0,0,0,0,0,0,0,0,0,0,0,0,0,0,0,0,0,0,0,0,0,0,0,0,0,0,0,0,0,0,0,0,0,0,0,0,-2.2694,-2.2694,0,-2.2661,-2.266,-2.266,-2.2637,-2.2637,-2.2637,-2.2636,-2.2602,-2.2601,-2.26,0,0,0,0,0,0,0,0,0,0,0,0,0,-2.2735,-2.2734,-2.2694,-2.2694,-2.2693,-2.2661,-2.266,-2.266,-2.2637,-2.2637,-2.2636,-2.2636,-2.2602,-2.2601,-2.26,0,0,0,0,0,0,0,0,0,0,0,0,0,-2.2711,-2.2734,-2.2694,-2.2678,-2.2676,-2.2661,-2.266,-2.266,-2.2637,-2.2637,-2.2636,-2.2636,-2.2602,-2.2601,-2.26,-2.2598,0,0,-2.2597,-2.2596,0,0,0,0,0,0,0,0,-2.2712,-2.271,-2.2681,-2.2679,-2.2677,-2.2653,-2.2662,-2.2639,-2.2637,-2.2652,-2.2636,-2.2636,-2.2619,-2.2616,-2.2611,-2.2597,-2.2595,-2.2596,-2.2596,-2.2595,-2.2595,0,0,0,0,0,0,0,-2.2714,-2.2711,-2.2681,-2.268,-2.2678,-2.2671,-2.2668,-2.2658,-2.2637,-2.265,-2.2649,-2.2645,-2.2618,-2.2612,-2.261,-2.2595,-2.2597,-2.2595,-2.2595,-2.2594,-2.2575,-2.2576,0,0,0,0,0,0,-2.2719,-2.2712,-2.2682,-2.268,-2.2694,-2.2671,-2.2667,-2.2661,-2.2637,-2.2633,-2.2645,-2.2644,-2.2614,-2.2611,-2.2608,-2.2603,-2.2595,-2.2594,-2.2594,-2.2575,-2.2575,-2.2576,0,0,0,0,0,0,-2.272,-2.2716,-2.2683,-2.2696,-2.2691,-2.267,-2.2664,-2.266,-2.2654,-2.2633,-2.2629,-2.2643,-2.2614,-2.261,-2.2601,-2.2602,-2.2594,-2.2593,-2.2575,-2.2575,-2.2576,-2.2595,0,0,0,0,0,0,-2.2721,-2.2717,-2.2716,-2.2696,-2.269,-2.2677,-2.2664,-2.266,-2.2652,-2.2651,-2.263,-2.2627,-2.2613,-2.2602,-2.2599,-2.26,-2.2592,-2.2575,-2.2575,-2.2575,-2.2594,-2.2595,-2.2597,0,0,0,0,0,-2.2722,-2.2723,-2.2716,-2.2713,-2.269,-2.2677,-2.2674,-2.2658,-2.2653,-2.2652,-2.2638,-2.2627,-2.2602,-2.2602,-2.2598,-2.2599,-2.2575,-2.2575,-2.2575,-2.2593,-2.2595,-2.2597,0,0,0,0,0,0,-2.2745,-2.272,-2.2713,-2.2707,-2.2694,-2.2673,-2.2672,-2.2661,-2.265,-2.2648,-2.2629,-2.2625,-2.2617,-2.2607,-2.2607,-2.2595,-2.2587,-2.2587,-2.2602,-2.2603,-2.2605,-2.2607,-2.2591,0,0,0,0,0,-2.2749,-2.2741,-2.272,-2.2717,-2.2711,-2.2692,-2.2686,-2.2675,-2.2661,-2.2656,-2.2641,-2.2627,-2.2616,-2.2609,-2.2598,-2.2592,-2.2586,-2.259,-2.2592,-2.2594,-2.2593,-2.2588,-2.2589,-2.2577,-2.2577,-2.2577,0,0,-2.2758,-2.2743,-2.274,-2.2721,-2.271,-2.2701,-2.2688,-2.268,-2.2673,-2.2654,-2.2644,-2.2633,-2.2616,-2.2608,-2.2604,-2.2599,-2.2595,-2.2594,-2.2595,-2.2594,-2.2588,-2.2589,-2.259,-2.2577,-2.2577,-2.2577,0,0,-2.2769,-2.2758,-2.2754,-2.2742,-2.2725,-2.2713,-2.2712,-2.2692,-2.2683,-2.2673,-2.2658,-2.2649,-2.2631,-2.2619,-2.2611,-2.2616,-2.2605,-2.2612,-2.2621,-2.2615,-2.2616,-2.2617,-2.2617,-2.2618,-2.2612,-2.2612,-2.2612,0,-2.2782,-2.2769,-2.2753,-2.2745,-2.2736,-2.2719,-2.2713,-2.2703,-2.2683,-2.2677,-2.2673,-2.2648,-2.2636,-2.2624,-2.2625,-2.2619,-2.2616,-2.2615,-2.2618,-2.2618,-2.2618,-2.2619,-2.2619,-2.2613,-2.2613,-2.2613,-2.2613,0,-2.2785,-2.2776,-2.2774,-2.2755,-2.2747,-2.274,-2.2722,-2.2715,-2.2704,-2.2692,-2.268,-2.2665,-2.2649,-2.2645,-2.2635,-2.2631,-2.2629,-2.2621,-2.2613,-2.2621,-2.2621,-2.2621,-2.2615,-2.2614,-2.2614,-2.2614,0,0,-2.281,-2.2781,-2.2781,-2.2771,-2.275,-2.2743,-2.2735,-2.2719,-2.2713,-2.27,-2.2692,-2.2676,-2.2668,-2.2658,-2.2646,-2.2642,-2.2645,-2.2634,-2.2633,-2.2636,-2.2637,-2.2643,-2.2644,-2.2637,-2.2637,-2.2637,-2.2639,0,-2.2817,-2.2803,-2.2787,-2.2777,-2.2768,-2.275,-2.2743,-2.2729,-2.2717,-2.2706,-2.2692,-2.2681,-2.2672,-2.2666,-2.266,-2.2645,-2.2645,-2.2645,-2.2628,-2.2628,-2.2633,-2.2644,-2.265,-2.2652,-2.2639,-2.2639,-2.2639,0,-2.2824,-2.2811,-2.2801,-2.2779,-2.2775,-2.2769,-2.2752,-2.2743,-2.2726,-2.2717,-2.2706,-2.2693,-2.2682,-2.2675,-2.2659,-2.266,-2.2652,-2.2644,-2.2643,-2.2641,-2.2634,-2.2641,-2.2653,-2.2653,-2.2638,-2.2638,-2.2638,0,-2.2842,-2.2822,-2.2812,-2.2805,-2.278,-2.2776,-2.2766,-2.2748,-2.274,-2.2725,-2.2719,-2.2704,-2.2695,-2.2683,-2.2665,-2.2662,-2.2651,-2.2643,-2.2642,-2.2643,-2.2641,-2.2641,-2.2651,-2.2637,-2.2637,-2.2637,-2.2637,0,-2.2851,-2.2845,-2.282,-2.2814,-2.2806,-2.2788,-2.278,-2.2768,-2.2753,-2.2743,-2.2727,-2.2718,-2.2696,-2.2685,-2.2671,-2.2659,-2.2655,-2.2647,-2.2643,-2.2648,-2.2649,-2.2643,-2.2642,-2.2637,-2.2637,-2.2637,-2.2637,0,-2.287,-2.2853,-2.2841,-2.2819,-2.2813,-2.2808,-2.2788,-2.2781,-2.2767,-2.2755,-2.2752,-2.273,-2.2715,-2.2697,-2.2676,-2.2667,-2.2656,-2.2651,-2.2662,-2.266,-2.266,-2.266,-2.2665,-2.2664,-2.2652,-2.2652,-2.2652,0,-2.2876,-2.2871,-2.2848,-2.2841,-2.2831,-2.2819,-2.281,-2.2791,-2.2782,-2.2761,-2.2757,-2.2741,-2.2727,-2.2704,-2.2686,-2.267,-2.2663,-2.2666,-2.2661,-2.2665,-2.2662,-2.2663,-2.2661,-2.2668,-2.2668,-2.2668,-2.2668,0,-2.289,-2.2881,-2.2869,-2.2854,-2.2843,-2.283,-2.2816,-2.2811,-2.2789,-2.2779,-2.2764,-2.2753,-2.2732,-2.2716,-2.2697,-2.2685,-2.2672,-2.267,-2.2669,-2.2674,-2.268,-2.2676,-2.2665,-2.267,-2.267,-2.267,-2.267,-2.267,-2.2902,-2.2896,-2.2878,-2.2865,-2.2852,-2.2839,-2.2831,-2.2816,-2.2804,-2.2785,-2.2774,-2.2759,-2.274,-2.2714,-2.2702,-2.2689,-2.2685,-2.2683,-2.2683,-2.2683,-2.2684,-2.2682,-2.2686,-2.2686,-2.2686,-2.2686,-2.2686,0,-2.2913,-2.2901,-2.2889,-2.287,-2.2859,-2.2848,-2.2832,-2.2823,-2.281,-2.2794,-2.2781,-2.2763,-2.2747,-2.2727,-2.2709,-2.2702,-2.2696,-2.2698,-2.2698,-2.2696,-2.2689,-2.2692,-2.2704,-2.2704,-2.2704,-2.2704,-2.2704,-2.2704,-2.2918,-2.2907,-2.2896,-2.2879,-2.2866,-2.2851,-2.2843,-2.283,-2.2817,-2.2798,-2.2784,-2.2772,-2.2754,-2.2734,-2.2719,-2.2713,-2.2707,-2.2711,-2.2703,-2.2698,-2.2696,-2.2695,-2.2697,-2.271,-2.271,-2.271,-2.2711,-2.2711]}]]